This demonstration page uses our WeatherBlox Daily Observations layout. Learn more.

Left ArrowRight Arrow

39.92423, -83.80882

Hourly Observations for February 11, 2021

Temp ( °F °C ) Dew Point ( °F °C ) Humidity (%) Winds ( mph kmh ) Pressure ( in mb ) Visibility ( mi km ) Precip ( " mm )
12:56 am 00:56 Mostly Clear 17 -8.3 15 -9.4 92 92 NNE 12 19 30.26 1025 10 16 0.00 0.00
1:56 am 01:56 Mostly Cloudy with Light Snow 17 -8.3 14 -10 88 88 NNE 12 19 30.28 1026 10 16 0.00 0.00
2:36 am 02:36 Cloudy with Light Snow 16 -9 16 -9 100 100 NNE 10 17 30.34 1027 3 5 0.00 0.00
2:56 am 02:56 Cloudy with Light Snow 16 -8.9 15 -9.4 96 96 N 15 24 30.29 1026 3 5 0.00 0.00
3:26 am 03:26 Cloudy with Light Snow 16 -9 14 -10 93 93 NNE 10 17 30.34 1027 5 8 0.00 0.00
3:56 am 03:56 Cloudy with Light Snow 16 -8.9 14 -10 92 92 NNE 12 19 30.31 1026 6 10 0.00 0.00
4:56 am 04:56 Cloudy with Light Snow 16 -8.9 14 -10 92 92 NNE 15 24 30.32 1027 5 8 0.00 0.00
5:56 am 05:56 Cloudy with Light Snow 16 -8.9 14 -10 92 92 NNE 15 24 30.34 1027 5 8 0.00 0.00
6:56 am 06:56 Cloudy with Light Snow 16 -8.9 13 -10.6 88 88 NNE 12 19 30.35 1028 7 11 0.00 0.00
7:56 am 07:56 Cloudy with Light Snow 16 -8.9 13 -10.6 88 88 NE 13 20 30.34 1028 3 5 0.00 0.00
8:56 am 08:56 Partly Cloudy 17 -8.3 13 -10.6 84 84 NNE 15 24 30.36 1028 9 14 0.00 0.00
9:56 am 09:56 Cloudy 18 -7.8 13 -10.6 81 81 NE 18 30 30.37 1028 10 16 0.00 0.00
10:56 am 10:56 Cloudy 18 -7.8 13 -10.6 81 81 NNE 17 28 30.37 1028 10 16 0.00 0.00
11:56 am 11:56 Mostly Cloudy 20 -6.7 13 -10.6 74 74 NE 17 28 30.37 1029 10 16 0.00 0.00
12:56 pm 12:56 Mostly Sunny 20 -6.7 13 -10.6 74 74 NNE 14 22 30.34 1028 10 16 0.00 0.00
1:56 pm 13:56 Sunny 21 -6.1 12 -11.1 68 68 NE 14 22 30.31 1027 10 16 0.00 0.00
2:56 pm 14:56 Mostly Sunny 21 -6.1 13 -10.6 71 71 NE 16 26 30.29 1026 10 16 0.00 0.00
3:56 pm 15:56 Mostly Sunny 22 -5.6 13 -10.6 68 68 NNE 9 15 30.30 1026 10 16 0.00 0.00
4:56 pm 16:56 Mostly Sunny 21 -6.1 13 -10.6 71 71 NNE 13 20 30.30 1026 10 16 0.00 0.00
5:56 pm 17:56 Mostly Sunny 21 -6.1 13 -10.6 71 71 NNE 13 20 30.31 1027 10 16 0.00 0.00
6:56 pm 18:56 Clear 20 -6.7 13 -10.6 74 74 NNE 17 28 30.31 1026 10 16 0.00 0.00
7:56 pm 19:56 Cloudy 18 -7.8 13 -10.6 81 81 NNE 16 26 30.32 1027 10 16 0.00 0.00
8:56 pm 20:56 Cloudy 18 -7.8 14 -10 84 84 NNE 14 22 30.30 1026 10 16 0.00 0.00
9:56 pm 21:56 Cloudy 18 -7.8 15 -9.4 88 88 NE 13 20 30.30 1026 10 16 0.00 0.00
10:56 pm 22:56 Cloudy 17 -8.3 14 -10 88 88 NE 15 24 30.27 1025 10 16 0.00 0.00
11:56 pm 23:56 Cloudy 18 -7.8 15 -9.4 88 88 NE 16 26 30.24 1024 10 16 0.00 0.00

Powered by AerisWeather